STARLINK-3662 (52099 NORAD) Tracking and Keplerian Element Data

This shows tracking and keplerian element data for the satellite.

Feedback or suggestion? Click here.




ElementValue
Catalog52099
NameSTARLINK-3662
Epoch Orbit595
Epoch Day107.66189202
Epoch Year2022
RAAN354.2829
Inclination53.2004
Eccentricity0.0003445
Argument of Perigee291.1534
Mean Anonmoly69.0924
Mean Motion16.32239774
Decay Rate0.13348967
L11 52099U 22029M 22107.66189202 .13348967 12156-4 22932-2 0 9996
L22 52099 53.2004 354.2829 0003445 291.1534 69.0924 16.32239774 5958



Live tracking and technical data element details for STARLINK-3662 (NORAD 52099). STARLINK-3662 can be tracked NOW for your location showing map with azimuth and elevation plus other details from your city location.







IsCatalogInMostPopularTable: catalog: 52099, numindb: 29
Update: records affected: 1



GetName: 52099 STARLINK-3662

Hit Count: updated at: Sun, 28 May 2023 07:30:11 GMT